Regional Weather Roundup
Issued by NWS Sioux Falls, SD

Home | Current Version | Previous Version | Text Only | Print | Product List | Glossary Off
Versions: 1 2 3 4 5 6 7 8 9 10 11 12 13 14 15 16 17 18 19 20 21 22 23 24 25 26 27 28 29 30 31 32 33 34 35 36 37 38 39 40 41 42 43 44 45 46 47 48 49 50

000
ASUS43 KFSD 251810
RWRFSD

WEATHER ROUNDUP FOR SE SOUTH DAKOTA/SW MINNESOTA/NW IOWA
NATIONAL WEATHER SERVICE SIOUX FALLS SD
100 PM CDT MON MAY 25 2015

NOTE: "FAIR" INDICATES FEW OR NO CLOUDS BELOW 12,000 FEET WITH NO
SIGNIFICANT WEATHER AND OR OBSTRUCTIONS TO VISIBILITY.


SDZ038>040-050-052>070-251900-
SOUTHEAST SOUTH DAKOTA

CITY           SKY/WX    TMP DP  RH WIND       PRES   REMARKS
BROOKINGS      CLOUDY    63  55  77 W10       29.75F
CHAMBERLAIN    CLOUDY    63  55  77 CALM      29.77S
6HR MIN TEMP:  55; 6HR MAX TEMP:  63;

HURON          CLOUDY    61  56  83 N12       29.75F
6HR MIN TEMP:  57; 6HR MAX TEMP:  64; 6HR PCP:  0.01;

MADISON        CLOUDY    63  63 100 W7        29.75F
MITCHELL       CLOUDY    64  58  80 S3        29.76S
6HR MIN TEMP:  59; 6HR MAX TEMP:  65;

SIOUX FALLS    PTSUNNY   66  58  75 SW7       29.74F
6HR MIN TEMP:  59; 6HR MAX TEMP:  66;

WINNER         CLOUDY    61  55  81 NE8       29.78S
YANKTON        CLOUDY    66  61  82 SE6       29.73F
$$

MNZ071-072-080-081-089-090-097-098-251900-
SOUTHWEST MINNESOTA

CITY           SKY/WX    TMP DP  RH WIND       PRES   REMARKS
FAIRMONT       PTSUNNY   70  57  64 W14       29.75F
JACKSON        PTSUNNY   70  61  73 SW14G20   29.75F
LUVERNE        CLOUDY    68  57  68 W13       29.75F
MARSHALL       CLOUDY    64  54  68 W15       29.72S
6HR MIN TEMP:  57; 6HR MAX TEMP:  66;

MONTEVIDEO     CLOUDY    64  64 100 W9        29.71S
REDWOOD FALLS  CLOUDY    66  57  72 W13       29.71S
TRACY          CLOUDY    67  59  75 W8        29.73F
WINDOM         CLOUDY    66  57  72 SW15      29.75F
WORTHINGTON    CLOUDY    68  57  68 SW16      29.75F
$$

IAZ001>003-012>014-020>022-031-032-NEZ013-014-SDZ071-251900-
NORTHWEST IOWA

CITY           SKY/WX    TMP DP  RH WIND       PRES   REMARKS
CHEROKEE       PTSUNNY   71  65  81 SW10G18   29.76S
DENISON        SUNNY     73  61  64 SW13G20   29.77S
ESTHERVILLE    PTSUNNY   68  61  78 SW15      29.74F
LE MARS        MOSUNNY   72  63  73 SW10      29.76S
ORANGE CITY    MOSUNNY   66  61  82 SW6       29.75F
SHELDON        CLOUDY    68  43  40 W9        29.75F
SIOUX CITY     MOSUNNY   73  61  65 SW13      29.76S
6HR MIN TEMP:  59; 6HR MAX TEMP:  73; 6HR PCP: TRACE;

SPENCER        PTSUNNY   70  63  78 W15G22    29.76F
6HR MIN TEMP:  61; 6HR MAX TEMP:  72; 6HR PCP: TRACE;

STORM LAKE     PTSUNNY   70  63  78 SW17      29.79S
$$

ABBREVIATIONS USED IN REMARKS
   TC - TEMPERATURE IN CELSIUS
  WCI - WIND CHILL INDEX
   HX - HEAT INDEX
  VSB - VISIBILITY



USA.gov is the U.S. government's official web portal to all federal, state and local government web resources and services.